カタログに戻る

COSMOS 1675

運用中軍事HEO
NORAD 15952·PAYLOAD·🇷🇺 Russia

打ち上げ Aug 12, 1985 から Plesetsk Cosmodrome

Loading…

次のパス (今後24時間)

TLE

最新Source: Space-Track

元期: Sep 14, 2026, 06:24 UTC

1 15952U 85071A   26257.26669666 -.00000069  00000-0  00000-0 0  9998
2 15952  65.7716  14.6651 6278281 266.3632  25.0113  3.14133247392498

AllMySatでCOSMOS 1675をリアルタイム追跡

Download on the App Store